Tracking 27402 objects as of 3-Jun-2023
HD Live streaming from Space Station
objects crossing your sky now

FORMOSAT 3E

Track FORMOSAT 3E now!
10-day predictions
FORMOSAT 3E is classified as:


NORAD ID: 29051
Int'l Code: 2006-011E
Perigee: 751.1 km
Apogee: 850.1 km
Inclination: 72.0 °
Period: 100.7 minutes
Semi major axis: 7171 km
RCS: 0.58 m2 (medium)
Launch date: April 15, 2006
Source: Taiwan (Republic of China) (ROC)
Launch site: AIR FORCE WESTERN TEST RANGE (AFWTR)
Your satellite tracking list
Your tracking list is empty




NASA's NSSDC Master Catalog

Two Line Element Set (TLE):
1 29051U 06011E   23153.13644020  .00000358  00000-0  15229-3 0  9997
2 29051  72.0058  52.9687 0069067 218.2086 141.4146 14.29481071896374
Source of the keplerian elements: AFSPC